Location: Maccacari
(45.1333°N, 11.1333°E)
Time: 14:14:34
(UTC+00:00)

S-56A Canister/Altair - Pass Details

Date: 25 January 2021
Orbit: 631 x 2501 km, 38.9° (Epoch: 01 March)

Event Time Altitude Azimuth Distance (km) Brightness Sun altitude
Rises 02:31:17 0° 246° (WSW) 2,991 - -44.0°
Reaches altitude 10° 02:33:46 10° 238° (WSW) 2,019 - -43.6°
Maximum altitude 02:37:50 36° 171° (S) 1,011 - -42.9°
Drops below altitude 10° 02:42:10 10° 104° (ESE) 2,157 - -42.2°
Exits shadow 02:42:27 - 103° (ESE) 2,264 10.5 -42.1°
Sets 02:44:54 0° 96° (E) 3,230 11.5 -41.7°
